Hourly Data Report for December 03, 2011

HALIFAX STANFIELD INT'L A
NOVA SCOTIA

44°52'48.060" N
63°30'00.050" W
145.40 m
8202250
71395
YHZ

Download Data

Hourly Data (December 2011)
Hourly Data Report for December 3, 2011
TIME
LST
Temp Definition
°C
Dew Point Definition
°C
Rel Hum Definition
%
Precip. Amount Definition
mm

Wind Dir Definition
10's deg

Wind Spd Definition
km/h
Visibility Definition
km
Stn Press Definition
kPa
Hmdx Definition


Wind Chill Definition


Weather Definition


00:00 0.7 -0.6 91     0 24.1 101.04     Mostly Cloudy
01:00 0.0 -1.0 93   4 7 24.1 101.00   -2 Mostly Cloudy
02:00 -0.3 -1.2 94   2 7 24.1 101.05   -3 Mainly Clear
03:00 -1.3 -1.9 96   34 7 24.1 101.12   -4 Mainly Clear
04:00 -1.6 -2.1 96   34 11 4.8 101.19   -5 Fog
05:00 -1.9 -2.5 96   35 7 8.0 101.23   -5 Fog
06:00 -2.2 -3.0 94   35 11 24.1 101.28   -6 Mainly Clear
07:00 -1.9 -2.8 94   36 11 24.1 101.41   -6 Mostly Cloudy
08:00 -0.9 -1.8 94   36 9 24.1 101.48   -4 Mostly Cloudy
09:00 -0.2 -1.0 94   35 13 24.1 101.56   -4 Mainly Clear
10:00 1.2 -0.8 86   35 15 24.1 101.63     Mostly Cloudy
11:00 1.6 -0.9 83   34 13 24.1 101.73     Mostly Cloudy
12:00 2.5 -0.7 79   34 13 24.1 101.74     Mostly Cloudy
13:00 2.6 -0.8 78   1 9 24.1 101.71     Mostly Cloudy
14:00 3.0 -1.2 74   36 15 24.1 101.70     Cloudy
15:00 3.1 -1.4 72   35 7 24.1 101.74     Mostly Cloudy
16:00 2.3 -1.3 77   36 7 24.1 101.78     Mostly Cloudy
17:00 0.6 -1.7 85   35 4 24.1 101.76     Mostly Cloudy
18:00 1.3 -1.1 84   5 6 24.1 101.86     Mostly Cloudy
19:00 1.1 -0.2 91   5 6 24.1 101.96     Mostly Cloudy
20:00 0.9 -0.3 92   3 7 19.3 102.03     Snow Showers
21:00 0.9 -1.1 86   8 6 24.1 101.99     Snow Showers
22:00 0.6 -1.0 89   8 6 24.1 101.96     Snow Showers
23:00 0.7 -0.9 89     0 24.1 102.01     Cloudy

Notes on Data Quality.

Legend

  • E = Estimated
  • M = Missing
  • NA = Not Available*
  • [empty] = Indicates an unobserved value
Date modified: